Weather observations for the past three days for
King Airport, St. Thomas
| Date | Time (ast) | Wind (kph) | Vis. (km) | Weather | Sky Cond. | Temperature (ºC) | Relative Humidity | Wind Chill (°C) | Heat Index (°C) | Pressure | Precipitation (cm) | ||||||
|---|---|---|---|---|---|---|---|---|---|---|---|---|---|---|---|---|---|
| Air | Dwpt | 6 hour | altimeter (cm) | sea level (mb) | 1 hr | 3 hr | 6 hr | ||||||||||
| Max. | Min. | ||||||||||||||||
| 03 | 06:53 | E 9 | 16.09 | Fair | CLR | 27 | 24 | 84% | 30 | 76.12 | 0.0 | ||||||
| 02 | 20:53 | SE 13 | 16.09 | Partly Cloudy | SCT050 | 27.8 | 23.9 | 79% | 32 | 76.15 | 1016.1 | ||||||
| 02 | 19:53 | NE 9 | 16.09 | Partly Cloudy | SCT030 | 28.9 | 23.9 | 74% | 33 | 76.12 | 1015.8 | ||||||
| 02 | 18:53 | E 9 | 16.09 | Partly Cloudy | SCT030 | 32 | 24 | 63% | 38 | 76.12 | 0.0 | ||||||
| 02 | 17:53 | E 9 | 16.09 | Partly Cloudy | SCT030 | 31.1 | 23.9 | 66% | 37 | 76.12 | 1015.8 | ||||||
| 02 | 16:53 | E 9 | 16.09 | Partly Cloudy | SCT030 | 33 | 24 | 59% | 39 | 76.12 | 0.0 | ||||||
| 02 | 15:53 | E 19 | 16.09 | Partly Cloudy | SCT030 | 32 | 24 | 63% | 38 | 76.12 | 0.0 | ||||||
| 02 | 14:53 | SE 19 | 16.09 | Partly Cloudy | SCT030 | 32.8 | 23.9 | 59% | 39 | 76.15 | 1016.1 | ||||||
| 02 | 13:53 | SE 22 | 16.09 | Partly Cloudy | SCT030 | 33 | 24 | 59% | 39 | 76.2 | 0.0 | ||||||
| 02 | 12:53 | SE 19 | 16.09 | Rain | SCT030 | 32 | 24 | 63% | 38 | 76.25 | 0.0 | ||||||
| 02 | 11:53 | SE 19 | 16.09 | Rain | SCT030 | 32 | 24 | 63% | 38 | 76.28 | 0.0 | ||||||
| 02 | 09:53 | SE 19 | 16.09 | Partly Cloudy | SCT030 | 30 | 24 | 70% | 35 | 76.28 | 0.0 | ||||||
| 02 | 08:53 | E 15 | 16.09 | Partly Cloudy | SCT023 | 30 | 24 | 70% | 35 | 76.25 | 0.0 | ||||||
| 02 | 07:53 | E 13 | 16.09 | Partly Cloudy | SCT023 | 29 | 24 | 74% | 34 | 76.25 | 0.0 | ||||||
| 02 | 06:53 | E 11 | 16.09 | Partly Cloudy | SCT030 | 29 | 24 | 74% | 34 | 76.2 | 0.0 | ||||||
| 01 | 20:53 | E 19 | 16.09 | NULL | NULL | 0 | 0 | 0% | 76.25 | 0.0 | |||||||
| 01 | 19:53 | E 19 | 16.09 | NULL | NULL | 28.9 | 23.9 | 74% | 33 | 76.17 | 1016.4 | ||||||
| 01 | 18:53 | E 9 | 16.09 | Partly Cloudy | SCT030 | 28.9 | 23.9 | 74% | 33 | 76.17 | 1016.4 | ||||||
| 01 | 17:53 | E 19 | 16.09 | A Few Clouds | FEW030 | 30 | 24 | 70% | 35 | 76.12 | 0.0 | ||||||
| 01 | 16:53 | E 9 | 16.09 | Partly Cloudy | SCT030 | 26 | 26 | 100% | 28 | 76.1 | 0.0 | ||||||
| 01 | 15:53 | E 19 | 16.09 | Partly Cloudy | SCT030 | 30 | 24 | 70% | 35 | 76.1 | 0.0 | ||||||
| 01 | 14:53 | E 19 | 16.09 | Partly Cloudy | SCT030 | 28 | 26 | 89% | 34 | 76.1 | 0.0 | ||||||
| 01 | 13:53 | E 20 | 16.09 | Partly Cloudy | SCT035 | 31 | 24 | 66% | 37 | 76.17 | 0.0 | ||||||
| 01 | 12:53 | SE 22 | 16.09 | Partly Cloudy | SCT035 | 31 | 23 | 62% | 35 | 76.23 | 0.0 | ||||||
| 01 | 11:53 | E 9 | 16.09 | Partly Cloudy | SCT030 | 28 | 25 | 84% | 33 | 76.25 | 0.0 | ||||||
| 01 | 10:53 | E 19 | 16.09 | Partly Cloudy | SCT030 | 30 | 26 | 79% | 37 | 76.28 | 0.0 | ||||||
| 01 | 09:53 | S 9 | 16.09 | Partly Cloudy | SCT030 | 30 | 0 | 0% | 76.28 | 1017.8 | |||||||
| 01 | 08:53 | E 9 | 16.09 | A Few Clouds | FEW030 | 0 | 0 | 0% | 0 | 0.0 | |||||||
| 01 | 07:53 | E 13 | 16.09 | Partly Cloudy | SCT030 | 28 | 24 | 79% | 32 | 0 | 0.0 | ||||||
| 31 | 20:53 | E 20 | 0.00 | NULL | NULL | 0 | 0 | 0% | 0 | 0.0 | |||||||
| 31 | 18:53 | E 13 | 16.09 | A Few Clouds | FEW030 | 0 | 0 | 0% | 76.15 | 1015.4 | |||||||
| 31 | 17:53 | E 17 | 16.09 | A Few Clouds | FEW030 | 0 | 0 | 0% | 76.15 | 0.0 | |||||||
| 31 | 16:53 | SE 26 | 16.09 | Mostly Cloudy | SCT030 BKN055 | 28.9 | 25 | 80% | 34 | 76.12 | 1015.8 | ||||||
| 31 | 15:53 | SE 26 | 16.09 | Mostly Cloudy | SCT035 BKN055 | 30 | 0 | 0% | 76.15 | 1016.1 | |||||||
| 31 | 14:53 | SE 26 | 16.09 | Mostly Cloudy | SCT035 BKN055 | 26 | 0 | 0% | 76.15 | 0.0 | |||||||
| 31 | 13:53 | SE 19 | 16.09 | Partly Cloudy | SCT030 | 0 | 0 | 0% | 76.23 | 0.0 | |||||||
| 31 | 12:53 | SE 17 | 16.09 | Mostly Cloudy | SCT030 BKN055 | 28 | 0 | 0% | 76.23 | 0.0 | |||||||
| 31 | 11:53 | SE 24 | 16.09 | Mostly Cloudy | SCT035 BKN060 | 29 | 0 | 0% | 76.23 | 0.0 | |||||||
| 31 | 10:53 | E 26 | 16.09 | Mostly Cloudy | SCT035 BKN060 | 0 | 0 | 0% | 0 | 0.0 | |||||||
| 31 | 09:53 | SE 22 | 16.09 | Partly Cloudy | SCT030 | 0 | 0 | 0% | 0 | 0.0 | |||||||
| Date | Time (ast) | Wind (kph) | Vis. (km) | Weather | Sky Cond. | Air | Dwpt | Max. | Min. | Relative Humidity | Wind Chill (°C) | Heat Index (°C) | altimeter (cm) | sea level (mb) | 1 hr | 3 hr | 6 hr |
| 6 hour | |||||||||||||||||
| Temperature (ºC) | Pressure | Precipitation (cm) | |||||||||||||||